Simultaneous Nadir Overpasses (SNOs) Predictions

Prediction of SNOs between AURA and NPP Satellite Orbit:

Table of predicted SNOs for the next 14.0 days since TLE Epoch: 11/17/2016
Index Date (AURA) Time (AURA) Lat,Lon (AURA) SZA (AURA ) Date (NPP) Time (NPP) Lat,Lon (NPP) SZA (NPP ) Distance(km) Time Diff (sec)
1 11/19/2016 02:51:38 79.48, 33.67 110.98 11/19/2016 02:51:29 79.47, 33.57 111.01 2.24 9
2 11/19/2016 03:40:58 -79.75,-156.74 69.39 11/19/2016 03:42:06 -79.75,-156.70 69.44 0.98 68
3 11/21/2016 18:18:49 -79.24, -19.67 68.10 11/21/2016 18:17:47 -79.23, -19.82 68.03 3.13 62
4 11/21/2016 19:08:06 79.58, 150.23 111.46 11/21/2016 19:08:21 79.57, 150.18 111.46 1.21 15
5 11/24/2016 10:35:16 -79.38, 97.12 67.71 11/24/2016 10:34:38 -79.37, 97.01 67.66 2.34 38
6 11/24/2016 11:24:34 79.67, -93.20 111.91 11/24/2016 11:25:13 79.67, -93.22 111.88 0.43 39
7 11/27/2016 02:51:43 -79.48,-146.33 67.31 11/27/2016 02:51:29 -79.47,-146.41 67.28 1.80 14
8 11/27/2016 03:41:01 79.77, 23.38 112.31 11/27/2016 03:42:04 79.76, 23.39 112.26 0.31 63
9 11/29/2016 18:18:49 79.37, 161.17 113.33 11/29/2016 18:17:41 79.37, 161.25 113.37 1.61 68




NCC Satellite Simultaneous Nadir Overpasses (SNOs) Prediction Service
